When you browse on this site, cookies collect data to enhance your experience and personalize the content and advertising you see.
Visit our Privacy Policy to learn more. By continuing to use the site, you agree to this use of cookies and data.
  • In Portugal
  • List of Countries
  • For 7 days
  • Water Temperature
  • Weather Map
  • Weather Widgets
  • user-avatar
    Login

    Hourly Weather Lipowe

    Today, 27 January, Monday

    Time Temperature Precipitation Wind Pressure Humidity
    00:00 -1°C° 0 mm 1 mps 719 mmHg 73%
    01:00 -1°C° 0 mm 1 mps 719 mmHg 73%
    02:00 -1°C° 0 mm 1 mps 718 mmHg 73%
    03:00 -1°C° 0 mm 1 mps 718 mmHg 73%
    04:00 -1°C° 0 mm 1 mps 718 mmHg 73%
    05:00 -1°C° 0 mm 1 mps 718 mmHg 74%
    06:00 -1°C° 0 mm 1 mps 718 mmHg 76%
    07:00 -1°C° 0 mm 1 mps 718 mmHg 78%
    08:00 0°C° 0 mm 1 mps 718 mmHg 76%
    09:00 +1°C° 0 mm 1 mps 718 mmHg 74%
    10:00 +3°C° 0 mm 1 mps 718 mmHg 71%
    11:00 +3°C° 0 mm 1 mps 718 mmHg 70%
    12:00 +3°C° 0 mm 0 mps 718 mmHg 69%
    13:00 +4°C° 0 mm 0 mps 717 mmHg 68%
    14:00 +3°C° 0 mm 0 mps 717 mmHg 74%
    15:00 +2°C° 0 mm 0 mps 717 mmHg 79%
    16:00 +1°C° 0 mm 0 mps 716 mmHg 84%
    17:00 +2°C° 0 mm 1 mps 716 mmHg 85%
    18:00 +1°C° 0 mm 1 mps 716 mmHg 86%
    19:00 +1°C° 0 mm 1 mps 716 mmHg 87%
    20:00 +1°C° 0 mm 1 mps 715 mmHg 87%
    21:00 +1°C° 0 mm 1 mps 715 mmHg 87%
    22:00 +1°C° 0 mm 1 mps 715 mmHg 88%
    23:00 0°C° 0 mm 1 mps 714 mmHg 88%

    Tomorrow, 28 January, Tuesday

    Time Temperature Precipitation Wind Pressure Humidity
    00:00 0°C° 0 mm 1 mps 714 mmHg 88%
    01:00 -2°C° 0 mm 2 mps 713 mmHg 87%
    02:00 -2°C° 0 mm 2 mps 713 mmHg 87%
    03:00 -2°C° 0 mm 2 mps 712 mmHg 86%
    04:00 -2°C° 0 mm 2 mps 712 mmHg 85%
    05:00 -2°C° 0 mm 2 mps 711 mmHg 85%
    06:00 -2°C° 0 mm 2 mps 711 mmHg 85%
    07:00 -2°C° 0 mm 2 mps 711 mmHg 84%
    08:00 0°C° 0 mm 3 mps 710 mmHg 81%
    09:00 +1°C° 0 mm 3 mps 710 mmHg 77%
    10:00 +2°C° 0 mm 3 mps 709 mmHg 73%
    11:00 +2°C° 0 mm 3 mps 709 mmHg 74%
    12:00 +2°C° 0 mm 3 mps 708 mmHg 75%
    13:00 +3°C° 0 mm 3 mps 708 mmHg 76%
    14:00 +3°C° 0 mm 2 mps 707 mmHg 79%
    15:00 +2°C° 0 mm 2 mps 706 mmHg 83%
    16:00 +2°C° 0 mm 2 mps 706 mmHg 86%
    17:00 +2°C° 0.2 mm 2 mps 706 mmHg 89%
    18:00 +1°C° 0.2 mm 2 mps 705 mmHg 92%
    19:00 +1°C° 0.2 mm 2 mps 705 mmHg 95%
    20:00 +1°C° 0.4 mm 2 mps 705 mmHg 95%
    21:00 +1°C° 0.4 mm 2 mps 705 mmHg 95%
    22:00 +1°C° 0.4 mm 2 mps 705 mmHg 95%
    23:00 0°C° 0 mm 3 mps 705 mmHg 91%

    Day after tomorrow, 29 January, Wednesday

    Time Temperature Precipitation Wind Pressure Humidity
    00:00 -1°C° 0 mm 3 mps 705 mmHg 88%
    01:00 -2°C° 0 mm 4 mps 705 mmHg 84%
    02:00 -2°C° 0 mm 4 mps 706 mmHg 82%
    03:00 -2°C° 0 mm 4 mps 706 mmHg 80%
    04:00 -3°C° 0 mm 4 mps 706 mmHg 79%
    05:00 -3°C° 0 mm 4 mps 706 mmHg 80%
    06:00 -2°C° 0 mm 3 mps 707 mmHg 81%
    07:00 -4°C° 0 mm 3 mps 707 mmHg 82%
    08:00 -3°C° 0 mm 4 mps 707 mmHg 80%
    09:00 -2°C° 0 mm 5 mps 707 mmHg 78%
    10:00 -2°C° 0 mm 5 mps 708 mmHg 75%
    11:00 -2°C° 0 mm 6 mps 708 mmHg 72%
    12:00 -1°C° 0 mm 6 mps 708 mmHg 68%
    13:00 -1°C° 0 mm 6 mps 708 mmHg 65%
    14:00 0°C° 0 mm 5 mps 708 mmHg 69%
    15:00 -1°C° 0 mm 5 mps 708 mmHg 72%
    16:00 -2°C° 0 mm 4 mps 708 mmHg 76%
    17:00 -2°C° 0 mm 4 mps 708 mmHg 81%
    18:00 -2°C° 0 mm 4 mps 709 mmHg 86%
    19:00 -3°C° 0 mm 4 mps 709 mmHg 91%
    20:00 -3°C° 0.4 mm 4 mps 709 mmHg 93%
    21:00 -4°C° 0.4 mm 5 mps 710 mmHg 95%
    22:00 -2°C° 0.4 mm 5 mps 710 mmHg 96%
    23:00 -2°C° 0.6 mm 5 mps 710 mmHg 96%

    30 January, Thursday

    Time Temperature Precipitation Wind Pressure Humidity
    00:00 -2°C° 0.6 mm 4 mps 711 mmHg 97%
    01:00 -2°C° 0.6 mm 4 mps 711 mmHg 97%
    02:00 -2°C° 0.8 mm 5 mps 712 mmHg 95%
    03:00 -2°C° 0.8 mm 5 mps 713 mmHg 94%
    04:00 -3°C° 0.8 mm 6 mps 713 mmHg 92%
    05:00 -4°C° 0.2 mm 6 mps 714 mmHg 93%
    06:00 -4°C° 0.2 mm 5 mps 714 mmHg 93%
    07:00 -4°C° 0.2 mm 5 mps 715 mmHg 94%
    08:00 -4°C° 0.1 mm 6 mps 715 mmHg 91%
    09:00 -3°C° 0.1 mm 6 mps 716 mmHg 87%
    10:00 -3°C° 0.1 mm 6 mps 716 mmHg 84%
    11:00 -3°C° 0 mm 6 mps 716 mmHg 82%
    12:00 -2°C° 0 mm 6 mps 716 mmHg 79%
    13:00 -1°C° 0 mm 5 mps 717 mmHg 77%
    14:00 -1°C° 0 mm 4 mps 717 mmHg 79%
    15:00 -1°C° 0 mm 3 mps 716 mmHg 81%
    16:00 -1°C° 0 mm 2 mps 716 mmHg 83%
    17:00 -2°C° 0 mm 2 mps 716 mmHg 83%
    18:00 -2°C° 0 mm 2 mps 716 mmHg 83%
    19:00 -3°C° 0 mm 2 mps 716 mmHg 83%
    20:00 -3°C° 0 mm 2 mps 716 mmHg 83%
    21:00 -3°C° 0 mm 2 mps 716 mmHg 83%
    22:00 -3°C° 0 mm 2 mps 716 mmHg 83%
    23:00 -2°C° 0 mm 2 mps 716 mmHg 83%

    31 January, Friday

    Time Temperature Precipitation Wind Pressure Humidity
    00:00 -2°C° 0 mm 2 mps 716 mmHg 83%
    01:00 -2°C° 0 mm 3 mps 716 mmHg 83%
    02:00 -2°C° 0 mm 2 mps 715 mmHg 83%
    03:00 -2°C° 0 mm 2 mps 715 mmHg 83%
    04:00 -2°C° 0 mm 2 mps 715 mmHg 83%
    05:00 -2°C° 0 mm 2 mps 715 mmHg 82%
    06:00 -2°C° 0 mm 2 mps 715 mmHg 80%
    07:00 -1°C° 0 mm 2 mps 715 mmHg 78%
    08:00 +1°C° 0 mm 2 mps 715 mmHg 76%
    09:00 +1°C° 0 mm 2 mps 714 mmHg 73%
    10:00 +1°C° 0 mm 3 mps 714 mmHg 71%
    11:00 +1°C° 0.3 mm 3 mps 714 mmHg 75%
    12:00 +1°C° 0.3 mm 3 mps 713 mmHg 79%
    13:00 +1°C° 0.3 mm 3 mps 713 mmHg 83%
    14:00 +1°C° 1.1 mm 3 mps 712 mmHg 87%
    15:00 +1°C° 1.1 mm 3 mps 712 mmHg 90%
    16:00 +1°C° 1.1 mm 3 mps 712 mmHg 93%
    17:00 +2°C° 0.8 mm 3 mps 712 mmHg 94%
    18:00 +1°C° 0.8 mm 4 mps 712 mmHg 94%
    19:00 +1°C° 0.8 mm 4 mps 713 mmHg 94%
    20:00 +3°C° 0.4 mm 4 mps 713 mmHg 95%
    21:00 +3°C° 0.4 mm 4 mps 713 mmHg 95%
    22:00 +3°C° 0.4 mm 4 mps 714 mmHg 96%
    23:00 +3°C° 0.1 mm 3 mps 714 mmHg 96%

    1 February, Saturday

    Time Temperature Precipitation Wind Pressure Humidity
    00:00 +3°C° 0.1 mm 3 mps 714 mmHg 97%
    01:00 +4°C° 0.1 mm 2 mps 715 mmHg 97%
    02:00 +4°C° 0.1 mm 2 mps 715 mmHg 97%
    03:00 +4°C° 0.1 mm 2 mps 715 mmHg 97%
    04:00 +4°C° 0.1 mm 2 mps 715 mmHg 96%
    05:00 +4°C° 0 mm 2 mps 716 mmHg 96%
    06:00 +4°C° 0 mm 2 mps 716 mmHg 95%
    07:00 +4°C° 0 mm 2 mps 716 mmHg 95%
    08:00 +4°C° 0 mm 2 mps 716 mmHg 93%
    09:00 +5°C° 0 mm 2 mps 716 mmHg 92%
    10:00 +5°C° 0 mm 2 mps 717 mmHg 90%
    11:00 +6°C° 0 mm 2 mps 717 mmHg 89%
    12:00 +6°C° 0 mm 2 mps 716 mmHg 88%
    13:00 +7°C° 0 mm 2 mps 716 mmHg 87%
    14:00 +6°C° 0 mm 2 mps 716 mmHg 88%
    15:00 +6°C° 0 mm 2 mps 716 mmHg 89%
    16:00 +5°C° 0 mm 2 mps 716 mmHg 90%
    17:00 +5°C° 0 mm 2 mps 716 mmHg 90%
    18:00 +5°C° 0 mm 2 mps 716 mmHg 91%
    19:00 +4°C° 0 mm 2 mps 716 mmHg 92%
    20:00 +4°C° 0 mm 2 mps 716 mmHg 91%
    21:00 +4°C° 0 mm 2 mps 716 mmHg 91%
    22:00 +4°C° 0 mm 2 mps 716 mmHg 91%
    23:00 +4°C° 0.1 mm 2 mps 716 mmHg 91%
    Show more